TimeEDT,TemperatureF,Dew PointF,Humidity,Sea Level PressureIn,VisibilityMPH,Wind Direction,Wind SpeedMPH,Gust SpeedMPH,PrecipitationIn,Events,Conditions,WindDirDegrees,DateUTC
12:52 AM,46.0,30.0,54,30.14,10.0,SE,3.5,-,N/A,,Clear,130,2013-03-31 04:52:00
1:52 AM,46.9,30.0,52,30.13,10.0,SSE,4.6,-,N/A,,Clear,160,2013-03-31 05:52:00
2:52 AM,48.0,30.0,50,30.11,10.0,SSE,5.8,-,N/A,,Clear,150,2013-03-31 06:52:00
3:52 AM,45.0,39.0,80,30.09,10.0,ESE,6.9,-,N/A,,Clear,110,2013-03-31 07:52:00
4:52 AM,45.0,39.9,82,30.07,10.0,SE,5.8,-,N/A,,Clear,130,2013-03-31 08:52:00
5:52 AM,46.0,39.9,79,30.06,10.0,SE,9.2,-,N/A,,Clear,130,2013-03-31 09:52:00
6:18 AM,46.4,39.2,76,30.05,10.0,ESE,9.2,-,N/A,,Overcast,120,2013-03-31 10:18:00
6:52 AM,46.9,39.9,77,30.04,10.0,SE,8.1,-,N/A,,Overcast,130,2013-03-31 10:52:00
7:52 AM,48.0,39.9,74,30.04,10.0,SE,8.1,-,N/A,,Overcast,140,2013-03-31 11:52:00
8:52 AM,48.9,41.0,74,30.03,10.0,ESE,9.2,-,N/A,,Overcast,120,2013-03-31 12:52:00
9:52 AM,50.0,42.1,74,30.01,10.0,ESE,9.2,-,N/A,,Overcast,110,2013-03-31 13:52:00
10:52 AM,54.0,42.1,64,29.99,10.0,ESE,12.7,-,N/A,,Overcast,120,2013-03-31 14:52:00
11:39 AM,57.2,39.2,51,29.96,10.0,SE,15.0,24.2,0.00,Rain,Light Rain,140,2013-03-31 15:39:00
11:52 AM,54.0,42.1,64,29.96,9.0,SSE,11.5,21.9,0.00,Rain,Light Rain,150,2013-03-31 15:52:00
12:52 PM,50.0,45.0,83,29.90,10.0,SE,12.7,-,0.02,Rain,Light Rain,130,2013-03-31 16:52:00
1:52 PM,48.9,46.0,90,29.86,4.0,SE,11.5,-,0.01,Rain,Light Rain,130,2013-03-31 17:52:00
2:04 PM,48.2,46.4,93,29.84,2.5,SE,11.5,-,0.00,Rain,Light Rain,130,2013-03-31 18:04:00
2:34 PM,48.2,46.4,93,29.82,1.5,SE,9.2,-,0.04,Rain,Rain,130,2013-03-31 18:34:00
2:52 PM,50.0,46.9,89,29.81,3.0,SE,11.5,-,0.04,,Overcast,130,2013-03-31 18:52:00
3:52 PM,53.1,48.9,86,29.79,7.0,South,6.9,-,N/A,,Overcast,180,2013-03-31 19:52:00
4:52 PM,54.0,50.0,86,29.78,6.0,SSW,8.1,-,N/A,,Overcast,200,2013-03-31 20:52:00
5:52 PM,55.0,50.0,83,29.78,8.0,SW,9.2,16.1,N/A,,Overcast,220,2013-03-31 21:52:00
6:52 PM,54.0,48.9,83,29.77,8.0,SSW,8.1,-,N/A,,Overcast,210,2013-03-31 22:52:00
7:47 PM,53.6,48.2,82,29.76,10.0,SW,9.2,-,N/A,,Scattered Clouds,220,2013-03-31 23:47:00
7:52 PM,53.1,48.0,83,29.77,10.0,SW,8.1,-,N/A,,Partly Cloudy,220,2013-03-31 23:52:00
8:52 PM,52.0,48.0,86,29.78,8.0,SW,6.9,-,N/A,,Partly Cloudy,230,2013-04-01 00:52:00
9:52 PM,48.9,46.0,90,29.78,6.0,Calm,Calm,-,N/A,,Clear,0,2013-04-01 01:52:00
10:14 PM,44.6,42.8,93,29.79,0.8,Calm,Calm,-,N/A,,Scattered Clouds,0,2013-04-01 02:14:00
10:24 PM,46.4,44.6,93,29.80,1.5,Calm,Calm,-,N/A,,Mostly Cloudy,0,2013-04-01 02:24:00
10:29 PM,46.4,44.6,93,29.80,3.0,Calm,Calm,-,N/A,,Mostly Cloudy,0,2013-04-01 02:29:00
10:52 PM,48.9,46.9,93,29.80,4.0,Calm,Calm,-,N/A,,Overcast,0,2013-04-01 02:52:00
11:52 PM,50.0,46.9,89,29.79,5.0,WNW,5.8,-,N/A,,Mostly Cloudy,300,2013-04-01 03:52:00